Miscellaneous Local Product
Issued by NWS Hastings, NE

Home | Current Version | Previous Version | Text Only | Print | Product List | Glossary Off
Versions: 1 2 3 4 5 6 7 8 9 10 11 12 13 14 15 16 17 18 19 20 21 22 23 24 25 26 27 28 29 30 31 32 33 34 35 36 37 38 39 40 41 42 43 44 45 46 47 48 49 50

636
AXUS43 KGID 072202
MISGRI

GID CWA HOURLY WEATHER ROUNDUP
NATIONAL WEATHER SERVICE HASTINGS NE
400 PM CST SUN FEB 07 2016

NOTE: "FAIR" INDICATES FEW OR NO CLOUDS BELOW 12,000 FEET WITH NO
SIGNIFICANT WEATHER AND/OR OBSTRUCTIONS TO VISIBILITY.

...SOUTH CENTRAL NEBRASKA...

CITY           SKY/WX    TMP DP  RH WIND       PRES   REMARKS
GRAND ISLAND   CLOUDY    38  21  50 NW22G30   30.06S WCI  27
HASTINGS       CLOUDY    39  22  50 NW24G32   30.08R WCI  28
ORD            MOSUNNY   38  19  46 NW36G46   30.02S WCI  25
YORK           MOSUNNY   39  27  60 NW31G39   30.04R WCI  27
AURORA         CLOUDY    38  23  54 NW26      30.06R WCI  27
LEXINGTON      SUNNY     40  17  38 NW26G37   30.12S WCI  29
HOLDREGE       SUNNY     40  21  46 NW21G30   30.10S WCI  30
HEBRON         PTSUNNY   42  24  49 NW17G26   30.08R

...NEBRASKA PANHANDLE...

CITY           SKY/WX    TMP DP  RH WIND       PRES   REMARKS
CHADRON        MOSUNNY   38  14  37 NW29G41   30.25R WCI  26
ALLIANCE       SUNNY     32  16  51 NW25G35   30.22R WCI  19
SCOTTSBLUFF    CLOUDY    34  17  50 NW21G30   30.30R WCI  22
SIDNEY         CLOUDY    31  14  49 N37G47    30.27R WCI  15

...WESTERN AND NORTH CENTRAL NEBRASKA...

CITY           SKY/WX    TMP DP  RH WIND       PRES   REMARKS
VALENTINE      CLOUDY    38  16  40 NW33G52   30.06R WCI  25
AINSWORTH      MOSUNNY   39  16  38 NW41G53   30.05R WCI  26
ONEILL         CLOUDY    37  24  61 NW40G54   30.00R WCI  22
BROKEN BOW     CLOUDY    41  14  33 NW32G48   30.06S
IMPERIAL       SUNNY     36  19  50 NW28G39   30.23S WCI  23
NORTH PLATTE   SUNNY     39  17  41 NW28G38   30.15R WCI  28
MCCOOK         SUNNY     39  22  50 NW24      30.20S WCI  28

...EASTERN NEBRASKA...

CITY           SKY/WX    TMP DP  RH WIND       PRES   REMARKS
NORFOLK        LGT SNOW  35  28  75 NW22G31   29.95S WCI  23
SO SIOUX CITY  LGT SNOW  35  30  82 NW23G32   29.89R WCI  23
TEKAMAH        LGT SNOW  35  31  85 W22       29.94S FOG     WCI  23
COLUMBUS       PTSUNNY   34  23  64 W22G31    30.01S WCI  22
ALBION         LGT SNOW  34  29  82 NW20G28   30.00F WCI  22
OMAHA EPPLEY   FLURRIES  36  29  75 NW18G32   29.96R WCI  26
OFFUTT AFB     CLOUDY    38  28  64 NW29      29.96R WCI  27
MILLARD        CLOUDY    40  27  59 NW20G28   29.97R WCI  30
LINCOLN        CLOUDY    39  26  59 NW21G32   30.03R WCI  29
NEBRASKA CITY  CLOUDY    42  24  50 NW22G29   29.98R
BEATRICE       CLOUDY    42  24  48 W28G39    30.03S
FALLS CITY     MOSUNNY   47  21  35 W36G46    29.98F

...NORTHERN KANSAS...

CITY           SKY/WX    TMP DP  RH WIND       PRES   REMARKS
GOODLAND       CLOUDY    36  19  50 NW22G31   30.27S WCI  25
HILL CITY      MOSUNNY   40  22  48 NW25G37   30.20F WCI  29
NORTON         CLEAR     39  18  41 W29G37    30.17  WCI  28
PHILLIPSBURG   SUNNY     43  25  49 W25G33    30.16F
SMITH CENTER   SUNNY     39  27  60 W23G31    30.14S WCI  29
BELOIT         SUNNY     45  27  49 W20G31    30.13S
HAYS           PTSUNNY   43  21  42 NW18G29   30.20S
RUSSELL        PTSUNNY   44  27  51 NW23      30.17F
CONCORDIA      SUNNY     46  26  45 W26G38    30.08F
SALINA         SUNNY     52  16  24 NW32G41   30.12F
TOPEKA         MOSUNNY   52  10  18 W25G40    30.04S



USA.gov is the U.S. government's official web portal to all federal, state and local government web resources and services.